Hourly Data Report for October 24, 2014

All times are specified in Local Standard Time (LST). Add 1 hour to adjust for Daylight Saving Time where and when it is observed.

PANGNIRTUNG
NUNAVUT

66°08'36.300" N
65°42'40.500" W
22.60 m
2403049
71826
WXP

Download Data

Hourly Data (October 2014)
Hourly Data Report for October 24, 2014
Temp Definition
°C
Dew Point Temp Definition
°C
Rel Hum Definition
%
Wind Dir Definition
10's deg

Wind Spd Definition
km/h
Visibility Definition
km
Stn Press Definition
kPa
Hmdx Definition


Wind Chill Definition


Weather Definition


TIME
00:00 -13.2 -17.5 70 29 22   100.80   -22 LegendNANA
01:00 -12.7 -17.3 68 30 17   100.83   -21 LegendNANA
02:00 -12.4 -16.5 71 27 24   100.85   -22 LegendNANA
03:00 -12.4 -16.8 70 28 18   100.96   -20 LegendNANA
04:00 -12.7 -17.8 66 27 14   101.04   -20 LegendNANA
05:00 -12.5 -18.3 62 24 13   101.11   -19 LegendNANA
06:00 -12.6 -17.5 66 22 28   101.10   -23 LegendNANA
07:00 -12.7 -18.0 64 26 24   101.20   -22 LegendNANA
08:00 -13.0 -18.2 65 25 14   101.23   -20 LegendNANA
09:00 -12.5 -17.0 70 29 32   101.16   -23 LegendNANA
10:00 -12.6 -18.0 64 31 23   101.27   -22 LegendNANA
11:00 -11.8 -17.3 64 29 26   101.30   -21 LegendNANA
12:00 -12.3 -17.6 65 25 23   101.41   -21 LegendNANA
13:00 -11.8 -17.7 62 23 16   101.44   -19 LegendNANA
14:00 -11.7 -17.2 64 31 20   101.49   -20 LegendNANA
15:00 -12.5 -17.7 65 23 27   101.54   -22 LegendNANA
16:00 -12.8 -18.0 65 17 8   101.57   -18 LegendNANA
17:00 -13.2 -17.4 71 10 6   101.59   -17 LegendNANA
18:00 -13.7 -18.2 69 16 10   101.59   -20 LegendNANA
19:00 -13.7 -17.8 71 18 4   101.58   -16 LegendNANA
20:00 -14.2 -17.9 73 12 9   101.56   -20 LegendNANA
21:00 -12.7 -17.2 69 30 9   101.53   -18 LegendNANA
22:00 -12.5 -17.0 69 31 21   101.47   -21 LegendNANA
23:00 -13.1 -17.2 71 31 19   101.48   -22 LegendNANA

Notes on Data Quality.

Legend

  • E = Estimated
  • M = Missing
  • NA = Not Available
  • ‡ = Partner data that is not subject to review by the National Climate Archives
Date modified: